Change the Weather History Date:

Saturday, March 16, 2013

  Actual Average Record
Temperature  
Mean Temperature 67 °F -  
Max Temperature 77 °F 69 °F 84 °F (2002)
Min Temperature 57 °F 52 °F 37 °F (1999)
Cooling Degree Days 2    
Growing Degree Days 17 (Base 50)    
Moisture  
Dew Point 53 °F    
Average Humidity 55    
Maximum Humidity 73    
Minimum Humidity 41    
Precipitation  
Precipitation 0.00 in - - ()
Sea Level Pressure  
Sea Level Pressure 30.07 in    
Wind  
Wind Speed 8 mph (SW)    
Max Wind Speed 17 mph    
Max Gust Speed -    
Visibility 9 miles    
Events Fog    
Averages and records for this station are not official NWS values.
T = Trace of Precipitation, MM = Missing Value Source: NWS Daily Summary

Daily Weather History Graph

Daily Weather History Graph

Search for Another Location

Airport or City:

Trip Planner

Search our weather history database for the weather conditions in past years. The results will help you decide how hot, cold, wet, or windy it might be!

Date:

Astronomy

Mar. 16, 2013 Rise Set
Actual Time 7:08 AM CDT 7:09 PM CDT
Civil Twilight 6:44 AM CDT 7:33 PM CDT
Nautical Twilight 6:16 AM CDT 8:00 PM CDT
Astronomical Twilight 5:49 AM CDT 8:28 PM CDT
Moon 10:00 AM CDT (3/16) 11:54 PM CDT (3/16)
Length of Visible Light 12h 48m
Length of Day
12h 00m
Waxing Crescent, 23% of the Moon is Illuminated
Mar 16
Waxing Crescent
Mar 19
First Quarter
Mar 27
Full
Apr 2
Last Quarter
Apr 10
New

Hourly Weather History & Observations

Time (CDT) Temp. Dew Point Humidity Pressure Visibility Wind Dir Wind Speed Gust Speed Precip Events Conditions
12:55 AM - - N/A% 30.17 in - North - - N/A   Unknown
1:55 AM - - N/A% 30.14 in - North - - N/A   Unknown
2:55 AM - - N/A% 30.12 in - North - - N/A   Unknown
3:55 AM - - N/A% 30.09 in - North - - N/A   Unknown
5:55 AM 61.0 °F 50.9 °F 69% 30.08 in 10.0 mi South 6.9 mph - N/A   Clear
6:55 AM 57.2 °F 46.9 °F 69% 30.10 in 10.0 mi South 4.6 mph - N/A   Partly Cloudy
7:55 AM 61.0 °F 47.7 °F 62% 30.11 in 6.0 mi Variable 3.5 mph - N/A Fog Partly Cloudy
8:55 AM 65.3 °F 55.9 °F 72% 30.12 in 10.0 mi SSE 8.1 mph - N/A   Partly Cloudy
9:55 AM 70.3 °F 55.9 °F 60% 30.12 in 10.0 mi South 9.2 mph - N/A   Partly Cloudy
10:55 AM 70.3 °F 55.9 °F 60% 30.12 in 10.0 mi South 13.8 mph - N/A   Partly Cloudy
11:55 AM 71.8 °F 53.8 °F 53% 30.11 in 10.0 mi South 10.4 mph - N/A   Scattered Clouds
12:55 PM 75.2 °F 52.0 °F 44% 30.09 in 10.0 mi SW 17.3 mph - N/A   Scattered Clouds
1:55 PM 77.2 °F 54.0 °F 44% 30.06 in 10.0 mi WSW 10.4 mph - N/A   Scattered Clouds
2:55 PM 77.4 °F 52.0 °F 41% 30.04 in 10.0 mi West 11.5 mph - N/A   Scattered Clouds
3:55 PM 77.4 °F 52.5 °F 42% 30.01 in 10.0 mi West 15.0 mph - N/A   Scattered Clouds
4:55 PM 75.0 °F 52.0 °F 44% 30.00 in 10.0 mi WSW 9.2 mph - N/A   Scattered Clouds
5:55 PM 77.2 °F 52.0 °F 41% 30.00 in 10.0 mi West 10.4 mph - N/A   Scattered Clouds
6:55 PM 72.7 °F 52.0 °F 48% 30.00 in 10.0 mi West 5.8 mph - N/A   Scattered Clouds
7:55 PM 71.2 °F 52.0 °F 51% 30.01 in 8.0 mi SW 5.8 mph - N/A   Scattered Clouds
8:55 PM 70.0 °F 54.0 °F 57% 30.01 in 8.0 mi South 6.9 mph - N/A   Scattered Clouds
9:55 PM 65.5 °F 52.7 °F 63% 30.03 in 8.0 mi South 4.6 mph - N/A   Scattered Clouds
10:55 PM 64.9 °F 55.9 °F 73% 30.02 in 8.0 mi Calm Calm - N/A   Scattered Clouds
11:55 PM - - N/A% 30.01 in - North - - N/A   Unknown